| time (UTC) | temp F | wind direction | speed knots | gust knots | rain 1hr in | rain 24hr in | rain mn in | humidity % | barometer mb |
| 20260507151504 | 55 | 319 | 1.7 | 7.0 | 0.00 | 0.06 | 0.06 | 66 | 1012.6 |
| 20260507150003 | 55 | 111 | 1.7 | 5.2 | 0.00 | 0.06 | 0.06 | 68 | 1012.4 |
| 20260507144501 | 55 | 60 | 1.7 | 4.3 | 0.00 | 0.13 | 0.06 | 70 | 1012.8 |
| 20260507143104 | 55 | 276 | 0.9 | 3.5 | 0.00 | 0.13 | 0.06 | 73 | 1013.1 |
| 20260507141623 | 55 | 65 | 0.9 | 5.2 | 0.00 | 0.13 | 0.06 | 72 | 1013.1 |
| 20260507140058 | 55 | 60 | 2.6 | 7.0 | 0.00 | 0.13 | 0.06 | 75 | 1013.2 |
| 20260507134556 | 55 | 33 | 1.7 | 7.8 | 0.00 | 0.15 | 0.06 | 75 | 1013.2 |
| 20260507133055 | 56 | 65 | 4.3 | 7.0 | 0.00 | 0.15 | 0.06 | 75 | 1013.1 |
| 20260507131554 | 55 | 129 | 2.6 | 4.3 | 0.00 | 0.15 | 0.06 | 76 | 1013.1 |
| 20260507130105 | 55 | 11 | 2.6 | 6.1 | 0.00 | 0.15 | 0.06 | 75 | 1012.9 |
| 20260507124551 | 55 | 82 | 1.7 | 7.0 | 0.00 | 0.16 | 0.06 | 77 | 1013.1 |
| 20260507123051 | 55 | 58 | 1.7 | 6.1 | 0.00 | 0.16 | 0.06 | 80 | 1012.7 |
| 20260507121547 | 55 | 52 | 2.6 | 5.2 | 0.00 | 0.16 | 0.06 | 82 | 1012.6 |
| 20260507120047 | 54 | 86 | 0.9 | 6.1 | 0.00 | 0.16 | 0.06 | 84 | 1012.3 |
| 20260507114544 | 54 | 58 | 1.7 | 4.3 | 0.00 | 0.16 | 0.06 | 85 | 1012.6 |
| 20260507113041 | 53 | 101 | 1.7 | 4.3 | 0.00 | 0.16 | 0.06 | 86 | 1012.3 |
| 20260507111544 | 53 | 60 | 0.0 | 2.6 | 0.00 | 0.16 | 0.06 | 87 | 1012.2 |
| 20260507110040 | 53 | 42 | 0.0 | 2.6 | 0.00 | 0.16 | 0.06 | 86 | 1012.4 |
| 20260507104536 | 0 | 0.0 | 0.0 | 0.00 | 0.16 | 0.06 | 1012.1 | ||
| 20260507103035 | 0 | 0.0 | 0.0 | 0.00 | 0.16 | 0.06 | 1011.9 | ||
| 20260507101535 | 0 | 0.0 | 0.0 | 0.00 | 0.16 | 0.06 | 1011.7 | ||
| 20260507100032 | 0 | 0.0 | 0.0 | 0.00 | 0.16 | 0.06 | 1011.7 | ||
| 20260507094518 | 0 | 0.0 | 0.0 | 0.00 | 0.16 | 0.06 | 1012.0 | ||
| 20260507093019 | 0 | 0.0 | 0.0 | 0.00 | 0.16 | 0.06 | 1011.8 | ||
| 20260507091514 | 53 | 53 | 0.9 | 3.5 | 0.00 | 0.16 | 0.06 | 89 | 1011.7 |
| 20260507090016 | 54 | 58 | 0.0 | 4.3 | 0.00 | 0.16 | 0.06 | 91 | 1011.4 |
| 20260507084509 | 54 | 75 | 0.0 | 2.6 | 0.00 | 0.16 | 0.06 | 92 | 1011.2 |
| 20260507083009 | 54 | 55 | 0.0 | 2.6 | 0.00 | 0.16 | 0.06 | 92 | 1011.4 |
| 20260507081518 | 54 | 329 | 0.0 | 1.7 | 0.00 | 0.16 | 0.06 | 92 | 1011.6 |
| 20260507080006 | 55 | 68 | 0.0 | 1.7 | 0.00 | 0.16 | 0.06 | 92 | 1011.2 |
| 20260507074505 | 55 | 65 | 1.7 | 2.6 | 0.00 | 0.16 | 0.06 | 91 | 1010.9 |
| 20260507073007 | 55 | 9 | 0.0 | 4.3 | 0.00 | 0.16 | 0.06 | 91 | 1010.8 |
| 20260507071503 | 55 | 332 | 0.9 | 4.3 | 0.00 | 0.16 | 0.06 | 91 | 1010.8 |
| 20260507070004 | 55 | 65 | 2.6 | 7.0 | 0.00 | 0.16 | 0.06 | 91 | 1010.8 |
| 20260507064501 | 55 | 328 | 0.0 | 6.1 | 0.00 | 0.16 | 0.06 | 90 | 1010.6 |
| 20260507063058 | 56 | 357 | 3.5 | 9.6 | 0.00 | 0.16 | 0.06 | 90 | 1010.8 |
| 20260507061555 | 56 | 39 | 3.5 | 7.0 | 0.01 | 0.16 | 0.06 | 91 | 1010.8 |
| 20260507060057 | 57 | 68 | 3.5 | 8.7 | 0.01 | 0.16 | 0.06 | 92 | 1009.9 |
| 20260507054550 | 57 | 71 | 0.9 | 6.1 | 0.02 | 0.16 | 0.06 | 92 | 1009.1 |
| 20260507053052 | 58 | 82 | 3.5 | 6.1 | 0.02 | 0.16 | 0.06 | 91 | 1009.7 |
| 20260507051542 | 58 | 115 | 0.9 | 6.1 | 0.05 | 0.15 | 0.05 | 91 | 1010.6 |
| 20260507050040 | 59 | 63 | 4.3 | 10.4 | 0.05 | 0.15 | 0.05 | 91 | 1010.7 |
| 20260507044549 | 60 | 75 | 3.5 | 7.0 | 0.04 | 0.14 | 0.04 | 90 | 1010.3 |
| 20260507043031 | 62 | 82 | 0.9 | 9.6 | 0.04 | 0.14 | 0.04 | 88 | 1010.1 |
| 20260507041527 | 64 | 323 | 0.0 | 4.3 | 0.00 | 0.10 | 0.00 | 87 | 1010.0 |
| 20260507040031 | 64 | 39 | 1.7 | 4.3 | 0.00 | 0.10 | 0.00 | 87 | 1009.8 |
| 20260507034522 | 65 | 303 | 1.7 | 5.2 | 0.00 | 0.10 | 0.10 | 88 | 1009.8 |
| 20260507033023 | 65 | 273 | 0.0 | 0.0 | 0.00 | 0.10 | 0.10 | 89 | 1009.5 |
| 20260507031522 | 65 | 273 | 0.0 | 0.9 | 0.00 | 0.10 | 0.10 | 89 | 1009.4 |
| 20260507030023 | 64 | 273 | 0.0 | 0.0 | 0.00 | 0.10 | 0.10 | 89 | 1009.7 |
| 20260507024521 | 64 | 273 | 0.0 | 0.0 | 0.00 | 0.10 | 0.10 | 90 | 1009.6 |
| 20260507023022 | 64 | 273 | 0.0 | 0.9 | 0.00 | 0.10 | 0.10 | 89 | 1009.2 |
| 20260507021522 | 64 | 273 | 0.0 | 0.0 | 0.00 | 0.10 | 0.10 | 89 | 1008.8 |
| 20260507020024 | 64 | 273 | 0.0 | 0.0 | 0.00 | 0.10 | 0.10 | 89 | 1009.2 |
| 20260507014519 | 64 | 273 | 0.0 | 0.0 | 0.00 | 0.10 | 0.10 | 88 | 1009.2 |
| 20260507013019 | 64 | 273 | 0.0 | 0.0 | 0.00 | 0.10 | 0.10 | 88 | 1009.3 |
| 20260507011519 | 65 | 273 | 0.0 | 0.0 | 0.00 | 0.10 | 0.10 | 86 | 1009.5 |
| 20260507010025 | 65 | 273 | 0.0 | 0.9 | 0.00 | 0.10 | 0.10 | 86 | 1009.1 |
| 20260507004517 | 66 | 273 | 0.0 | 1.7 | 0.00 | 0.10 | 0.10 | 85 | 1008.9 |
| 20260507003021 | 66 | 233 | 0.0 | 1.7 | 0.00 | 0.10 | 0.10 | 85 | 1008.9 |
| 20260507001523 | 67 | 211 | 0.0 | 2.6 | 0.00 | 0.10 | 0.10 | 84 | 1008.9 |
| 20260507000016 | 68 | 177 | 0.0 | 1.7 | 0.00 | 0.10 | 0.10 | 82 | 1008.8 |
| 20260506234515 | 69 | 256 | 0.0 | 3.5 | 0.00 | 0.10 | 0.10 | 80 | 1008.8 |
| 20260506233014 | 69 | 249 | 0.9 | 4.3 | 0.00 | 0.10 | 0.10 | 79 | 1008.3 |
| 20260506231515 | 69 | 276 | 1.7 | 5.2 | 0.00 | 0.10 | 0.10 | 79 | 1008.4 |
| 20260506230015 | 69 | 271 | 0.0 | 5.2 | 0.00 | 0.10 | 0.10 | 78 | 1008.3 |
| 20260506224514 | 70 | 264 | 2.6 | 7.8 | 0.00 | 0.10 | 0.10 | 76 | 1008.5 |
| 20260506223013 | 71 | 358 | 0.9 | 5.2 | 0.00 | 0.10 | 0.10 | 75 | 1008.4 |
| 20260506221513 | 72 | 243 | 0.9 | 4.3 | 0.00 | 0.10 | 0.10 | 74 | 1008.5 |
| 20260506220012 | 71 | 248 | 1.7 | 6.1 | 0.00 | 0.10 | 0.10 | 73 | 1008.3 |
| 20260506214511 | 72 | 126 | 0.9 | 4.3 | 0.00 | 0.10 | 0.10 | 74 | 1008.1 |
| 20260506213011 | 72 | 319 | 0.0 | 12.2 | 0.00 | 0.10 | 0.10 | 73 | 1008.5 |
| 20260506211507 | 71 | 298 | 2.6 | 7.0 | 0.00 | 0.10 | 0.10 | 74 | 1008.0 |
| 20260506210006 | 70 | 271 | 2.6 | 9.6 | 0.00 | 0.10 | 0.10 | 75 | 1008.2 |
| 20260506204506 | 70 | 269 | 0.9 | 7.0 | 0.00 | 0.10 | 0.10 | 75 | 1008.1 |
| 20260506203005 | 69 | 323 | 1.7 | 7.8 | 0.00 | 0.10 | 0.10 | 77 | 1008.2 |
| 20260506201507 | 69 | 281 | 2.6 | 9.6 | 0.00 | 0.10 | 0.10 | 77 | 1008.3 |
| 20260506200004 | 68 | 281 | 0.9 | 6.1 | 0.00 | 0.10 | 0.10 | 79 | 1008.4 |
| 20260506194502 | 67 | 316 | 1.7 | 7.8 | 0.00 | 0.10 | 0.10 | 81 | 1008.3 |
| 20260506193101 | 66 | 333 | 1.7 | 10.4 | 0.00 | 0.10 | 0.10 | 82 | 1008.7 |
| 20260506191559 | 66 | 222 | 1.7 | 4.3 | 0.00 | 0.10 | 0.10 | 82 | 1008.8 |
| 20260506190059 | 66 | 290 | 1.7 | 7.8 | 0.00 | 0.10 | 0.10 | 80 | 1009.2 |
| 20260506184557 | 66 | 276 | 1.7 | 5.2 | 0.00 | 0.10 | 0.10 | 81 | 1009.6 |
| 20260506183105 | 66 | 267 | 1.7 | 8.7 | 0.00 | 0.10 | 0.10 | 82 | 1009.4 |
| 20260506181558 | 66 | 240 | 2.6 | 7.0 | 0.00 | 0.10 | 0.10 | 82 | 1009.5 |
| 20260506180055 | 66 | 210 | 2.6 | 7.8 | 0.00 | 0.10 | 0.10 | 82 | 1009.2 |
| 20260506174552 | 66 | 240 | 0.9 | 6.1 | 0.00 | 0.10 | 0.10 | 82 | 1009.6 |
| 20260506173053 | 65 | 295 | 2.6 | 8.7 | 0.00 | 0.10 | 0.10 | 83 | 1009.7 |
| 20260506171556 | 64 | 264 | 0.9 | 5.2 | 0.00 | 0.10 | 0.10 | 84 | 1010.0 |
| 20260506170049 | 64 | 261 | 1.7 | 7.0 | 0.00 | 0.10 | 0.10 | 85 | 1009.9 |
| 20260506164552 | 64 | 256 | 2.6 | 6.1 | 0.00 | 0.10 | 0.10 | 84 | 1010.0 |
| 20260506163049 | 63 | 256 | 2.6 | 8.7 | 0.00 | 0.10 | 0.10 | 87 | 1010.1 |
| 20260506161546 | 62 | 314 | 2.6 | 7.8 | 0.00 | 0.10 | 0.10 | 89 | 1010.6 |
| 20260506160045 | 61 | 236 | 3.5 | 7.8 | 0.00 | 0.10 | 0.10 | 90 | 1010.4 |
| 20260506154556 | 61 | 312 | 2.6 | 8.7 | 0.01 | 0.10 | 0.10 | 90 | 1010.4 |
| 20260506153042 | 61 | 287 | 3.5 | 9.6 | 0.02 | 0.10 | 0.10 | 90 | 1010.3 |
| 20260506151542 | 61 | 274 | 1.7 | 8.7 | 0.06 | 0.10 | 0.10 | 91 | 1010.3 |